Theta_e
307 307 306 306 307 307 307 308 308 308 308 307 307 307 309 310 311 310 310 309 308 305 306 305 307 306 306 307 305 309 310 314 314 307 305 305 303 303 303 306 305 303 302 302 303 299 296 312 311 306 314 318 317 319
305 306 306 307 306 306 306 307 308 308 308 308 308 307 308 309 312 311 306 312 305 306 306 308 309 310 309 307 305 310 311 312 312 310 308 306 304 305 304 299 307 303 309 307 307 307 314 316 316 318 318 317 318 320
303 304 304 305 305 306 306 307 307 307 308 307 307 308 307 308 311 311 307 306 306 306 308 308 309 312 314 312 313 306 310 314 313 316 311 310 303 306 300 304 304 307 310 309 307 312 313 315 317 319 319 318 319 319
303 302 302 303 304 304 305 306 307 307 307 307 308 308 307 308 310 311 310 306 304 304 302 307 314 311 315 315 314 314 313 316 317 312 310 312 308 309 306 306 306 309 310 307 306 311 312 314 315 316 316 317 317 317
302 301 301 301 302 303 304 305 307 307 307 307 307 307 307 307 310 313 314 314 313 305 301 305 310 313 314 314 312 313 314 313 310 308 308 308 311 309 310 309 305 309 308 304 304 313 312 311 313 315 314 314 316 315
302 302 301 301 301 301 303 305 306 307 307 307 307 307 307 309 310 312 303 311 314 312 304 301 309 309 311 313 312 312 313 313 311 308 308 310 310 309 304 303 309 311 311 315 310 314 313 314 315 314 312 315 316 314
302 302 302 302 301 302 302 304 305 307 307 308 308 308 308 309 312 306 303 306 312 314 303 300 303 308 310 311 312 311 314 313 310 311 307 308 308 306 304 300 306 308 309 310 312 311 308 310 310 313 316 315 312 314
301 302 302 303 303 302 302 303 305 307 307 308 307 307 308 308 309 308 310 306 312 309 305 299 301 303 310 307 305 313 308 309 310 308 309 305 307 306 299 304 306 307 308 308 309 311 311 312 312 313 315 314 312 311
302 302 302 303 303 303 303 303 306 307 307 307 307 308 308 307 304 308 308 307 314 307 300 302 297 297 310 308 309 307 309 302 309 304 305 306 301 299 302 305 306 308 308 308 310 310 310 311 310 312 312 310 310 309
303 303 303 303 304 303 303 304 306 307 307 307 306 303 299 305 308 309 307 303 301 305 306 299 305 300 305 306 305 305 307 301 299 303 308 302 300 307 308 308 309 309 309 309 308 308 309 309 310 310 308 308 307 307
304 304 304 304 304 304 303 304 306 306 306 304 300 299 306 310 306 303 299 298 298 294 300 300 302 300 308 301 302 307 301 303 296 299 300 298 299 305 305 306 308 310 310 310 309 308 309 309 307 306 306 307 308 308
304 305 305 305 304 304 303 304 305 304 302 303 305 308 305 301 297 293 293 297 295 292 299 298 301 303 304 310 304 304 300 301 293 303 299 295 303 306 306 306 308 310 310 309 310 308 308 308 308 307 308 308 309 310
302 303 306 305 305 304 304 304 305 305 305 308 303 297 297 297 288 288 286 290 291 296 299 300 298 302 304 307 304 301 295 295 304 297 295 298 305 306 307 307 307 308 308 307 307 307 307 307 308 308 307 308 308 308
301 303 306 305 304 304 304 305 305 307 307 299 294 286 290 287 291 292 293 294 299 300 299 300 300 300 302 299 301 293 299 300 293 291 292 302 306 306 307 307 306 305 306 306 306 306 306 306 307 307 308 308 308 306
302 305 305 304 304 304 304 305 306 309 304 296 296 288 291 296 297 298 300 299 301 303 301 300 301 302 299 297 298 297 293 290 293 294 300 305 307 307 306 306 306 306 307 307 307 306 306 306 307 307 307 307 306 304
305 305 303 304 304 304 305 306 305 304 303 297 296 293 297 295 295 297 297 298 302 302 303 303 298 296 295 298 294 292 290 290 298 303 306 307 307 306 306 306 307 307 307 308 308 307 307 307 306 305 306 305 306 304
303 300 303 303 304 304 304 301 300 297 299 295 295 301 299 299 299 298 300 300 304 301 297 300 294 292 299 294 292 297 295 299 303 307 308 308 307 306 307 307 307 307 307 307 307 307 305 305 306 305 304 302 306 306
299 302 304 304 303 302 301 300 298 297 292 298 296 297 300 302 301 302 302 303 301 300 299 298 301 295 293 291 294 301 302 307 309 308 307 307 307 307 307 308 307 307 307 305 304 305 305 304 304 304 303 304 305 306
301 302 303 303 304 300 293 297 300 294 297 298 298 300 300 301 305 307 307 304 304 305 303 302 295 295 296 301 302 304 306 306 305 306 307 307 308 307 307 308 307 307 306 305 305 305 305 308 306 304 305 304 303 303
302 302 303 303 304 298 294 297 304 295 294 297 301 300 300 304 306 307 305 303 303 302 299 297 298 301 302 304 307 307 307 309 306 304 304 305 307 307 307 307 307 307 307 304 303 298 308 308 305 305 306 305 303 304
302 303 303 306 305 301 296 295 294 295 297 296 300 300 299 301 301 301 300 304 301 299 297 303 305 305 307 306 307 308 306 308 307 306 305 304 308 307 306 307 307 307 307 302 300 305 302 306 304 307 307 305 305 306
302 303 303 302 297 295 293 296 294 296 294 294 294 298 295 294 296 300 304 299 300 303 304 305 305 305 304 304 305 307 306 306 307 305 295 299 304 304 303 304 305 305 304 301 304 305 307 307 306 306 306 306 304 308
301 301 299 297 291 289 289 297 291 293 289 290 292 291 291 291 295 300 292 294 297 303 306 305 305 306 306 305 306 306 306 305 305 307 306 306 306 305 304 304 303 303 303 301 305 304 304 296 301 304 306 306 305 305
301 297 293 291 291 288 291 290 293 291 291 290 289 289 291 293 296 294 292 296 298 299 300 302 304 303 304 303 303 305 306 307 305 306 307 306 302 301 303 303 306 305 303 305 304 303 304 307 300 304 307 306 305 302
292 291 293 288 293 288 287 288 288 289 289 292 290 290 292 296 292 292 293 298 300 301 302 303 303 303 301 301 302 303 308 306 305 304 307 303 302 303 303 303 303 303 306 303 301 301 303 304 306 306 306 306 304 302
287 293 290 292 292 290 291 288 290 291 292 290 291 295 295 293 290 289 296 300 301 302 302 301 300 299 300 301 301 303 305 308 306 303 304 303 304 303 301 301 302 303 308 306 302 302 302 303 303 303 304 303 293 302
288 290 295 300 298 296 294 296 297 296 291 290 293 293 293 288 288 295 300 303 303 304 305 304 303 302 301 302 304 305 305 305 304 304 306 305 305 307 304 305 304 306 305 304 306 306 305 302 301 302 303 305 306 305
297 297 291 295 296 298 292 294 293 292 294 298 296 291 290 290 293 301 304 305 306 306 303 304 305 305 304 303 303 305 305 304 305 304 304 304 304 305 308 309 311 294 305 307 307 307 303 304 304 303 304 303 304 306
296 301 299 295 296 297 296 295 296 299 301 301 297 295 295 300 303 302 304 306 305 304 303 302 304 306 306 304 304 305 305 304 300 299 297 301 304 304 307 307 307 306 306 307 291 298 306 305 305 304 304 304 305 307
296 302 296 295 293 293 297 300 300 303 303 303 302 301 300 301 304 306 304 303 302 302 303 304 304 304 301 301 301 302 304 305 304 302 303 305 305 304 304 303 304 305 306 307 307 305 290 300 297 304 301 303 304 305
302 302 296 296 294 298 300 303 304 304 303 302 302 298 297 299 301 304 306 308 306 304 304 304 301 301 300 300 301 300 301 305 306 306 306 308 307 304 305 306 307 308 309 307 307 306 303 302 301 300 301 302 302 300
300 296 295 292 295 299 301 299 298 298 298 297 297 299 299 298 295 302 307 307 305 304 296 300 300 300 301 303 303 303 292 306 307 307 307 308 305 307 308 308 309 309 307 306 306 307 306 305 305 304 302 301 301 301
298 297 297 296 295 295 298 298 296 295 297 296 297 299 299 298 293 302 309 310 307 306 306 304 303 303 303 303 304 303 298 306 301 290 289 288 289 298 305 306 309 309 308 307 306 307 307 306 305 304 303 303 302 301
Wind_Speed
9 9 9 9 11 11 9 10 13 13 13 12 11 9 7 4 13 3 2 2 5 4 3 3 3 5 5 5 6 9 6 3 2 2 3 2 2 3 3 3 2 5 5 5 3 5 7 4 4 5 6 3 3 2
6 6 7 7 7 9 10 8 13 14 13 11 11 8 7 7 6 4 1 1 2 5 6 5 10 10 8 6 7 5 4 4 6 3 2 2 3 2 1 6 1 4 5 3 5 6 4 1 2 2 1 2 4 2
7 7 7 7 6 5 6 10 10 11 13 11 10 10 6 6 8 7 1 2 3 4 6 5 4 4 6 9 8 6 4 6 3 3 4 2 2 2 4 3 3 3 2 2 3 4 2 3 3 2 2 1 0 1
5 7 7 7 6 6 5 7 10 11 12 11 10 10 8 7 8 13 6 3 3 4 5 4 1 3 1 5 8 10 7 4 6 4 3 1 1 4 3 3 3 5 5 4 4 4 3 7 5 3 4 4 4 3
3 4 4 2 3 5 6 5 9 12 11 10 11 11 8 5 6 8 3 3 3 6 5 4 7 2 1 5 7 7 6 6 4 3 3 1 1 3 2 2 4 6 4 6 4 8 5 8 6 5 8 7 6 4
7 7 8 7 3 1 5 7 7 10 12 11 13 12 9 8 9 5 5 7 6 3 5 3 4 1 2 3 7 7 6 5 4 4 2 1 3 5 4 5 5 3 3 5 7 6 8 9 6 10 9 8 6 5
10 10 10 9 8 6 4 7 7 10 10 12 13 11 7 9 7 2 5 5 5 5 4 4 3 5 1 2 4 5 4 2 4 1 4 3 2 4 4 8 3 7 7 7 8 9 11 10 9 8 8 5 3 5
14 14 13 13 12 11 8 6 8 11 11 13 13 10 7 7 1 5 4 4 6 4 4 4 1 5 1 4 5 2 5 4 3 3 2 5 2 3 5 5 9 8 8 9 6 7 10 10 10 9 6 6 5 7
18 17 17 16 15 14 11 9 9 12 14 17 15 13 6 1 4 1 8 5 1 4 4 3 3 4 2 3 2 4 3 5 3 5 4 3 6 6 5 5 4 7 8 12 11 11 10 9 10 5 6 4 8 6
20 19 19 18 17 17 15 11 11 15 20 18 11 4 5 5 8 10 6 5 0 2 3 5 1 3 4 4 3 3 2 2 4 3 3 5 8 10 4 7 8 9 9 9 9 9 7 8 8 6 5 2 3 4
21 21 22 20 19 19 18 15 15 22 17 6 5 2 5 10 2 2 4 5 5 4 5 6 5 3 2 4 4 2 2 3 4 4 4 4 4 5 1 3 5 6 3 2 3 5 6 6 5 6 6 4 4 3
4 17 23 23 23 22 20 19 23 9 7 5 6 6 3 3 3 5 5 5 5 6 5 9 8 5 4 2 3 5 3 4 3 3 4 4 3 6 6 6 7 8 8 8 8 9 9 9 7 5 4 5 5 6
6 7 21 25 26 25 22 21 19 11 11 5 3 4 5 2 3 6 9 5 6 4 4 4 6 6 4 2 1 3 5 3 2 4 4 5 9 7 7 7 7 7 7 7 7 7 6 5 5 6 6 6 7 7
7 6 22 25 28 26 23 24 18 12 5 3 5 6 6 5 7 6 8 7 4 3 7 8 6 4 3 5 2 4 2 3 3 5 7 3 7 7 6 5 6 5 4 5 4 5 5 6 5 4 5 6 7 7
12 15 23 26 28 25 25 22 15 3 2 3 4 5 8 5 5 8 4 6 4 5 7 7 5 4 6 4 5 2 5 5 6 4 3 5 7 7 6 5 4 3 4 4 5 6 6 6 6 5 6 6 6 5
20 20 11 27 27 26 25 17 3 2 2 3 4 4 3 5 6 6 5 6 6 7 8 4 4 5 6 3 5 6 4 6 2 2 5 6 7 6 5 4 3 3 4 4 5 5 6 7 7 6 6 4 4 6
15 6 24 25 24 24 15 4 1 3 2 3 3 2 3 2 1 5 6 6 7 8 8 4 7 4 4 4 5 5 4 4 6 2 4 6 7 6 4 2 2 3 4 4 6 6 5 5 5 4 5 6 5 5
16 19 25 22 15 14 4 2 2 3 4 3 3 2 3 2 0 4 4 6 8 8 6 2 3 6 4 5 3 3 4 2 0 3 5 6 5 4 1 2 2 3 4 3 4 4 4 3 4 4 4 5 4 5
14 14 19 14 7 5 2 1 2 2 2 3 0 2 3 3 4 1 3 6 7 7 4 3 5 4 5 2 2 2 0 3 4 4 5 4 2 2 2 2 4 4 4 4 4 3 3 2 4 3 3 3 4 3
14 16 15 10 4 3 4 2 1 1 1 2 2 3 2 1 1 2 5 8 7 7 6 5 4 2 3 3 1 1 3 2 3 5 4 4 3 4 3 4 4 4 2 4 2 3 2 1 4 3 3 4 3 4
6 4 6 2 2 4 2 1 2 1 2 2 2 3 2 2 2 2 4 5 4 3 5 3 1 4 4 4 4 3 3 1 1 3 3 3 1 3 4 4 4 2 2 1 2 2 3 2 2 0 3 4 3 4
3 1 2 2 2 2 0 1 1 0 1 1 2 3 2 2 1 2 1 4 2 1 1 2 3 4 5 5 4 1 3 2 1 1 4 3 5 4 4 3 3 2 1 2 3 3 1 2 2 3 4 4 3 3
6 2 2 1 1 2 1 1 3 3 2 3 1 2 2 1 2 1 1 1 1 2 2 4 5 3 3 5 1 2 3 4 4 3 3 4 4 4 5 4 4 5 2 3 3 1 2 4 3 4 5 5 4 5
5 4 4 4 3 1 1 3 2 3 3 3 3 3 4 3 5 3 3 4 3 4 5 5 4 3 3 3 3 2 3 3 4 4 4 4 4 4 4 4 4 3 4 2 4 4 4 4 6 5 6 7 5 6
3 3 4 4 4 3 4 4 3 4 3 3 3 3 3 3 3 4 3 4 7 6 6 5 4 3 3 3 3 4 3 4 5 5 5 3 5 3 2 2 3 3 4 5 6 6 7 6 6 8 9 8 10 10
4 4 3 1 4 3 2 4 4 6 5 3 2 4 4 4 5 3 2 6 6 6 6 5 3 3 3 3 5 6 4 3 3 5 5 4 3 4 2 3 4 3 4 4 6 8 8 8 7 8 6 5 9 11
2 2 2 2 1 1 2 2 2 2 3 3 4 6 4 4 2 2 4 4 4 5 4 3 3 2 1 3 4 4 4 3 5 5 4 4 4 4 3 5 6 4 6 7 8 9 9 9 9 9 10 10 11 11
2 1 1 4 2 1 2 2 2 3 3 2 3 2 1 3 2 3 2 4 4 4 4 3 3 2 2 3 4 4 3 3 3 2 2 1 1 1 2 2 1 10 7 8 7 8 8 10 10 9 10 10 8 9
1 2 3 6 3 2 4 4 2 3 2 2 2 3 3 3 3 5 5 4 4 3 3 3 3 2 2 3 2 3 3 2 4 4 3 4 5 3 2 3 7 6 7 7 2 3 8 8 8 10 11 9 9 10
4 1 1 4 5 4 4 4 4 4 3 3 4 6 7 7 6 3 4 4 3 3 2 1 4 3 3 2 2 1 1 1 1 2 4 1 3 5 5 6 6 7 8 10 9 10 8 8 7 8 8 9 9 9
2 1 3 3 3 4 4 5 4 4 3 5 5 7 8 5 2 2 2 0 3 5 5 2 1 2 1 1 1 2 2 1 2 3 3 3 6 6 7 8 9 9 9 9 11 12 11 9 9 10 11 11 11 9
1 2 4 4 5 4 5 5 5 6 6 6 6 6 6 5 3 4 2 3 2 5 3 2 2 2 2 2 3 2 2 1 2 3 2 3 4 5 8 6 8 8 10 10 11 13 14 11 9 9 10 12 11 10
4 4 6 6 5 6 4 4 4 5 3 3 3 2 3 2 3 3 3 2 4 3 3 3 0 2 2 1 3 3 2 0 3 5 4 4 3 4 6 5 6 9 11 10 11 12 14 12 10 11 10 11 11 10
Wind_Direction
179 179 184 185 188 180 190 195 196 195 201 200 204 202 212 233 175 208 86 248 292 278 295 296 328 326 330 359 337 7 256 168 307 215 260 112 201 123 154 52 173 221 203 192 175 233 236 34 177 249 26 13 11 110
125 144 168 174 180 185 182 197 189 187 197 205 199 194 188 186 162 188 168 145 278 266 343 314 291 282 277 306 311 318 356 15 18 267 83 206 93 207 223 164 187 167 9 360 334 43 86 65 18 67 158 1 55 70
123 131 140 129 136 159 181 185 187 190 193 196 192 185 189 193 175 183 185 167 215 266 256 238 240 127 222 239 246 287 104 345 71 324 327 19 67 8 334 63 125 98 61 11 272 126 143 158 192 220 209 250 137 91
153 129 116 118 158 166 174 188 186 188 192 192 182 188 182 198 205 207 209 162 278 280 277 116 216 241 248 228 216 229 300 294 285 278 306 313 202 214 172 24 289 36 171 172 236 187 204 208 218 241 204 213 200 170
180 151 138 131 120 155 178 185 191 185 181 188 182 180 172 172 182 208 235 202 253 297 339 327 306 104 121 211 211 213 230 267 286 244 247 81 70 257 83 279 219 186 154 231 301 58 317 315 316 237 257 247 226 213
204 200 182 184 213 232 169 181 184 185 174 178 177 170 170 163 159 182 209 204 193 252 274 277 60 157 1 212 197 199 207 231 274 311 14 92 40 286 266 254 41 223 289 2 318 334 322 308 305 295 270 236 214 244
221 215 208 200 193 220 206 180 185 178 178 172 162 156 156 175 194 252 4 19 146 202 248 247 193 114 84 142 154 174 189 208 283 313 239 297 184 286 281 261 248 280 294 303 301 300 281 268 275 293 237 219 200 246
224 219 214 209 195 201 214 187 182 169 162 154 141 126 128 133 244 261 109 191 196 235 263 265 199 196 216 170 144 211 178 205 174 301 219 256 141 242 256 253 262 288 303 287 306 304 279 290 286 243 225 225 222 218
226 222 216 209 207 198 196 195 181 163 151 132 125 137 123 215 171 89 115 146 276 290 273 240 251 131 194 133 105 163 246 204 91 249 231 249 231 226 295 310 294 326 310 302 297 289 286 256 259 232 238 220 229 212
219 216 212 207 203 190 187 185 172 155 139 141 151 183 166 178 112 146 181 157 253 264 242 260 52 198 257 184 140 149 229 246 230 174 98 235 254 252 303 300 304 309 298 292 287 285 292 261 246 246 235 104 31 47
213 211 205 199 189 181 181 174 165 148 136 182 177 123 71 126 90 265 195 179 159 202 224 241 229 203 119 227 145 294 193 190 242 113 252 205 244 165 133 17 7 353 357 76 63 40 27 34 83 108 101 85 64 17
246 207 199 192 185 177 176 169 161 145 175 158 102 114 100 196 154 193 193 149 189 219 191 218 194 223 122 265 215 178 220 191 245 134 240 240 142 122 111 82 67 63 73 78 75 74 69 70 70 70 47 13 355 336
250 271 190 180 174 173 169 168 164 148 137 152 155 131 170 129 169 201 179 177 203 191 170 176 169 187 174 210 213 209 219 211 128 214 245 264 115 131 128 114 95 86 82 78 72 67 57 48 44 15 356 350 333 321
228 249 159 162 163 166 162 166 172 157 186 130 141 144 212 179 208 204 202 180 195 163 164 184 141 172 165 185 198 217 135 226 230 235 227 113 136 132 127 121 122 91 58 47 38 24 15 7 1 6 355 345 332 330
195 155 145 152 156 157 156 172 165 131 190 158 174 196 195 209 208 203 220 166 151 147 167 156 148 165 168 188 205 198 189 228 226 241 60 94 134 141 130 119 103 61 24 18 10 5 5 2 348 351 1 351 356 342
137 139 121 143 148 148 155 154 74 295 198 202 216 203 177 199 176 176 188 193 154 160 173 187 165 178 173 197 178 199 203 226 183 53 82 133 142 142 129 103 59 20 360 359 360 359 343 357 357 349 354 338 336 340
88 74 129 134 137 140 119 80 138 221 238 208 195 232 221 7 40 165 183 173 181 175 183 170 194 143 137 198 203 194 229 350 28 110 116 121 144 136 129 96 30 348 334 351 353 354 353 356 4 342 348 350 344 331
85 97 101 114 116 108 63 279 166 192 188 188 179 112 245 311 160 143 177 152 186 190 208 192 124 200 203 185 208 200 216 91 310 121 125 134 142 143 123 348 345 324 337 353 359 348 7 351 332 14 13 357 334 30
88 95 83 59 67 95 63 232 292 245 51 92 34 193 195 232 248 235 201 171 211 204 186 212 235 213 206 198 329 72 133 205 158 162 132 149 170 208 263 259 283 291 338 23 349 8 321 345 28 12 16 354 20 25
75 73 77 77 98 178 200 131 208 51 133 71 184 225 247 316 334 195 176 171 189 191 202 224 234 68 47 71 12 33 75 111 175 185 184 173 185 214 247 300 307 347 319 42 0 289 284 71 70 9 24 43 21 66
99 53 59 31 46 25 25 31 101 360 312 263 349 241 133 26 45 127 144 185 184 215 217 238 262 90 71 82 84 99 114 293 315 320 339 277 199 270 281 269 250 291 13 30 262 173 233 51 64 156 89 73 76 84
76 27 75 37 78 115 206 248 342 100 229 28 1 360 80 108 125 139 204 208 227 177 178 220 131 138 151 146 126 56 62 285 248 259 205 206 257 268 274 276 267 242 253 252 241 250 142 109 134 116 104 113 100 71
140 168 109 106 79 53 52 197 215 166 187 172 95 156 123 160 157 167 146 257 263 246 178 143 139 137 106 115 174 244 249 263 263 285 305 287 292 293 280 271 260 254 225 242 185 148 181 68 122 139 143 135 132 105
156 175 176 176 205 195 227 200 181 173 187 179 181 141 158 140 173 219 218 175 139 162 165 155 162 161 161 207 245 298 271 255 285 285 275 281 283 270 240 238 237 212 218 212 163 167 191 147 136 166 160 144 132 113
215 205 184 188 160 186 188 167 197 196 158 164 131 126 137 160 209 202 168 136 152 167 162 168 181 199 259 277 283 298 268 262 260 273 289 286 271 257 232 213 219 225 177 159 175 185 178 169 174 171 168 159 140 133
240 172 208 128 167 250 125 153 157 146 130 99 100 137 177 209 202 145 152 162 168 161 180 188 198 233 243 252 284 283 293 247 267 270 279 246 252 235 215 183 174 163 191 183 172 160 164 166 175 151 170 150 127 143
235 135 164 239 279 178 164 118 144 169 120 132 162 178 198 186 127 113 134 162 159 145 156 160 172 189 282 293 287 280 269 267 260 266 285 271 245 225 199 210 192 158 163 166 162 174 154 154 159 175 184 177 174 173
7 281 68 138 173 187 131 158 173 117 106 140 176 149 59 68 126 117 132 133 121 121 124 152 158 208 280 283 268 257 251 242 268 124 117 98 116 156 205 235 169 130 151 159 174 142 166 169 170 160 148 162 161 166
237 145 191 128 151 109 32 17 55 78 45 279 108 111 110 85 105 126 125 119 109 152 162 204 215 234 276 310 246 272 256 252 193 200 208 212 164 127 152 137 142 152 151 156 177 211 156 138 144 149 144 144 150 152
109 291 124 51 39 44 42 353 51 79 51 46 93 127 122 111 76 60 115 154 177 195 184 228 341 356 302 291 286 291 277 216 198 235 292 221 136 132 145 148 155 157 166 169 147 119 98 109 119 121 129 143 146 141
96 149 97 69 72 61 64 98 115 120 112 110 119 118 117 108 130 206 206 214 166 174 180 134 29 338 307 307 309 127 124 23 355 83 78 107 134 148 159 168 168 165 165 153 150 154 150 158 144 152 161 147 142 154
123 153 151 125 126 130 131 100 96 102 113 116 115 130 160 185 141 137 81 303 259 146 120 81 6 329 311 273 212 241 297 102 340 23 22 155 147 160 153 174 158 152 154 155 162 162 168 172 155 155 153 153 161 157
110 104 114 126 147 153 146 136 121 124 128 133 114 85 80 63 80 83 120 17 348 18 134 80 214 296 298 295 170 140 140 260 291 285 272 275 314 159 150 168 162 158 158 161 167 167 179 178 167 164 163 163 170 163